Location: Rounton
(54.4000°N, 1.3500°W)
Time: 22:45:48
(UTC+00:00)

Explorer 7 - Pass Details

Date: 03 December 2021
Orbit: 483 x 674 km, 50.3° (Epoch: 17 January)

Event Time Altitude Azimuth Distance (km) Brightness Sun altitude
Rises 08:27:08 0° 254° (WSW) 2,736 10.1 1.4°
Reaches altitude 10° 08:29:30 10° 248° (WSW) 1,808 9.2 1.7°
Maximum altitude 08:33:25 46° 175° (S) 711 8.0 2.1°
Drops below altitude 10° 08:37:08 10° 102° (ESE) 1,718 10.4 2.5°
Sets 08:39:20 0° 96° (E) 2,582 11.2 2.7°
